{"data":{"norad_id":69610,"epoch":"2026-09-20T04:00:03.000096Z","epoch_age_seconds":57729,"freshness":"FRESH","line1":"1 69610U 26140U   26263.16670139 -.01895365  00000+0 -10625+0 0  9998","line2":"2 69610  51.8896 299.9448 0006863 184.0592 332.5310 15.16342117  4864","mean_motion":15.16342117,"eccentricity":0.0006863,"inclination_deg":51.8896,"raan_deg":299.9448,"arg_perigee_deg":184.0592,"mean_anomaly_deg":332.531,"bstar":-0.10625,"rev_number":486,"period_min":94.965376471173,"perigee_km":512.17494457611,"apogee_km":521.63908198874,"semimajor_km":6895.0440132824,"source":"CELESTRAK","updated_at":"2026-09-20T09:00:25.003376Z"}}